Weather History for West Plains, MO

Change the Weather History Date:

Monday, April 29, 2013

  Actual Average Record
Temperature  
Mean Temperature 62 °F 61 °F  
Max Temperature 80 °F 73 °F 90 °F (1952)
Min Temperature 44 °F 49 °F 27 °F (1992)
Degree Days  
Heating Degree Days 3 5  
Month to date heating degree days 316 247  
Since 1 July heating degree days 4362 4257  
Cooling Degree Days 0 1  
Month to date cooling degree days 15 24  
Year to date cooling degree days 15 28  
Growing Degree Days 12 (Base 50)    
Moisture  
Dew Point 51 °F    
Average Humidity 74    
Maximum Humidity 100    
Minimum Humidity 48    
Precipitation  
Precipitation 0.00 in 0.17 in 2.04 in (1991)
Month to date precipitation 5.21 4.32  
Year to date precipitation 16.28 14.17  
Sea Level Pressure  
Sea Level Pressure 29.91 in    
Wind  
Wind Speed 6 mph (South)    
Max Wind Speed 16 mph    
Max Gust Speed 22 mph    
Visibility 7 miles    
Events Fog    
T = Trace of Precipitation, MM = Missing Value Source: NWS Daily Summary

Daily Weather History Graph

Daily Weather History Graph

Search for Another Location

Airport:

Trip Planner

Search our weather history database for the weather conditions in past years. The results will help you decide how hot, cold, wet, or windy it might be!

Date:

Astronomy

Apr. 29, 2013 Rise Set
Actual Time 6:15 AM CDT 7:54 PM CDT
Civil Twilight 5:47 AM CDT 8:22 PM CDT
Nautical Twilight 5:14 AM CDT 8:56 PM CDT
Astronomical Twilight 4:39 AM CDT 9:31 PM CDT
Moon No Moon Rise 9:39 AM CDT
Length of Visible Light 14h 34m
Length of Day
13h 39m
Waning Gibbous, 80% of the Moon is Illuminated
Apr 29
Waning Gibbous
May 2
Last Quarter
May 9
New
May 17
First Quarter
May 24
Full

Hourly Weather History & Observations

Time (CDT) Temp. Windchill Dew Point Humidity Pressure Visibility Wind Dir Wind Speed Gust Speed Precip Events Conditions
12:53 AM 52.0 °F - 48.0 °F 86% 29.94 in 10.0 mi South 3.5 mph - N/A   Clear
1:53 AM 51.1 °F - 48.0 °F 89% 29.93 in 10.0 mi SSW 3.5 mph - N/A   Clear
2:53 AM 51.1 °F - 48.0 °F 89% 29.92 in 10.0 mi SSW 3.5 mph - N/A   Clear
3:53 AM 46.9 °F - 45.0 °F 93% 29.92 in 5.0 mi Calm Calm - N/A   Clear
3:59 AM 46.4 °F - 46.4 °F 100% 29.93 in 1.5 mi Calm Calm - N/A   Clear
4:24 AM 46.4 °F - 44.6 °F 93% 29.92 in 0.8 mi Calm Calm - N/A   Mist
4:39 AM 46.4 °F 45.2 °F 44.6 °F 93% 29.92 in 1.5 mi WSW 3.5 mph - N/A   Partly Cloudy
4:46 AM 48.2 °F - 46.4 °F 93% 29.92 in 9.0 mi WSW 4.6 mph - N/A   Partly Cloudy
4:53 AM 48.0 °F - 46.9 °F 96% 29.91 in 10.0 mi WSW 4.6 mph - N/A   Partly Cloudy
5:36 AM 46.4 °F - 44.6 °F 93% 29.92 in 1.8 mi Calm Calm - N/A   Clear
5:46 AM 44.6 °F - 44.6 °F 100% 29.93 in 0.8 mi Calm Calm - N/A   Clear
5:53 AM 45.0 °F - 44.1 °F 97% 29.92 in 0.5 mi Calm Calm - N/A Fog Fog
6:01 AM 44.6 °F - 44.6 °F 100% 29.93 in 1.2 mi Calm Calm - N/A   Clear
6:09 AM 44.6 °F - 42.8 °F 93% 29.93 in 1.0 mi Calm Calm - N/A   Clear
6:13 AM 44.6 °F - 42.8 °F 93% 29.93 in 2.5 mi Calm Calm - N/A   Clear
6:20 AM 44.6 °F - 42.8 °F 93% 29.94 in 10.0 mi Calm Calm - N/A   Clear
6:53 AM 46.9 °F - 45.0 °F 93% 29.94 in 6.0 mi Calm Calm - N/A   Partly Cloudy
7:53 AM 52.0 °F - 51.1 °F 97% 29.96 in 9.0 mi South 4.6 mph - N/A   Clear
8:53 AM 57.9 °F - 52.0 °F 81% 29.96 in 10.0 mi SSE 5.8 mph - N/A   Clear
9:53 AM 63.0 °F - 54.0 °F 72% 29.95 in 10.0 mi SSE 6.9 mph - N/A   Clear
10:53 AM 66.9 °F - 55.9 °F 68% 29.95 in 10.0 mi SSE 6.9 mph - N/A   Clear
11:24 AM 69.8 °F - 55.4 °F 60% 29.96 in 1.5 mi South 6.9 mph - N/A   Haze
11:32 AM 69.8 °F - 55.4 °F 60% 29.96 in 10.0 mi SSE 9.2 mph - N/A   Clear
11:53 AM 71.1 °F - 57.0 °F 61% 29.93 in 10.0 mi SSE 8.1 mph - N/A   Clear
12:53 PM 73.0 °F - 57.0 °F 57% 29.91 in 10.0 mi SE 6.9 mph - N/A   Clear
1:53 PM 75.0 °F - 57.9 °F 55% 29.88 in 10.0 mi SE 8.1 mph - N/A   Clear
2:53 PM 77.0 °F - 57.9 °F 52% 29.86 in 10.0 mi SSE 9.2 mph 17.3 mph N/A   Clear
3:53 PM 79.0 °F - 57.9 °F 48% 29.83 in 10.0 mi SSE 12.7 mph 18.4 mph N/A   Partly Cloudy
4:53 PM 79.0 °F - 57.9 °F 48% 29.82 in 10.0 mi SSE 9.2 mph 17.3 mph N/A   Clear
5:53 PM 77.0 °F - 57.0 °F 50% 29.82 in 10.0 mi South 13.8 mph - N/A   Partly Cloudy
6:53 PM 75.9 °F - 59.0 °F 56% 29.82 in 10.0 mi South 10.4 mph - N/A   Clear
7:53 PM 73.9 °F - 59.0 °F 59% 29.82 in 10.0 mi SSE 8.1 mph - N/A   Clear
8:53 PM 70.0 °F - 60.1 °F 71% 29.84 in 10.0 mi SE 5.8 mph - N/A   Clear
9:53 PM 68.0 °F - 60.1 °F 76% 29.85 in 10.0 mi SE 5.8 mph - N/A   Clear
10:53 PM 66.9 °F - 60.1 °F 79% 29.85 in 10.0 mi SSE 5.8 mph - N/A   Clear
11:53 PM 64.9 °F - 59.0 °F 81% 29.86 in 10.0 mi South 5.8 mph - N/A   Clear